Weather History for Detroit, MI

Change the Weather History Date:

Friday, October 5, 2012

  Actual Average Record
Temperature  
Mean Temperature 56 °F -  
Max Temperature 66 °F 66 °F 88 °F (1951)
Min Temperature 46 °F 48 °F 31 °F (1965)
Degree Days  
Heating Degree Days 9    
Growing Degree Days 6 (Base 50)    
Moisture  
Dew Point 48 °F    
Average Humidity 72    
Maximum Humidity 89    
Minimum Humidity 55    
Precipitation  
Precipitation 0.09 in - - ()
Sea Level Pressure  
Sea Level Pressure 30.02 in    
Wind  
Wind Speed 10 mph (West)    
Max Wind Speed 15 mph    
Max Gust Speed 21 mph    
Visibility 10 miles    
Events Rain    
Averages and records for this station are not official NWS values.
T = Trace of Precipitation, MM = Missing Value Source: NWS Daily Summary

Daily Weather History Graph

Daily Weather History Graph

Search for Another Location

Airport:

Trip Planner

Search our weather history database for the weather conditions in past years. The results will help you decide how hot, cold, wet, or windy it might be!

Date:

Astronomy

Oct. 05, 2012 Rise Set
Actual Time 7:34 AM EDT 7:05 PM EDT
Civil Twilight 7:06 AM EDT 7:33 PM EDT
Nautical Twilight 6:33 AM EDT 8:06 PM EDT
Astronomical Twilight 6:00 AM EDT 8:38 PM EDT
Moon 10:22 PM EDT (10/5) 12:46 PM EDT (10/5)
Length of Visible Light 12h 27m
Length of Day
11h 31m
Waning Gibbous, 74% of the Moon is Illuminated
Oct 5
Waning Gibbous
Oct 8
Last Quarter
Oct 15
New
Oct 21
First Quarter
Oct 29
Full

Hourly Weather History & Observations

Time (EDT) Temp. Windchill Dew Point Humidity Pressure Visibility Wind Dir Wind Speed Gust Speed Precip Events Conditions
12:53 AM 66.0 °F - 57.0 °F 73% 30.01 in 10.0 mi West 8.1 mph - 0.00 in   Scattered Clouds
1:53 AM 64.9 °F - 57.9 °F 78% 30.01 in 10.0 mi West 11.5 mph - N/A   Mostly Cloudy
2:53 AM 64.0 °F - 57.0 °F 78% 30.01 in 10.0 mi West 11.5 mph 18.4 mph 0.00 in   Mostly Cloudy
3:42 AM 62.6 °F - 57.2 °F 82% 30.00 in 10.0 mi West 6.9 mph - N/A   Overcast
3:53 AM 63.0 °F - 57.9 °F 84% 29.99 in 10.0 mi West 10.4 mph - N/A   Overcast
4:12 AM 62.6 °F - 55.4 °F 77% 30.01 in 10.0 mi West 10.4 mph 19.6 mph N/A   Overcast
4:29 AM 62.6 °F - 55.4 °F 77% 30.01 in 10.0 mi West 10.4 mph 19.6 mph N/A   Overcast
4:37 AM 62.6 °F - 55.4 °F 77% 30.01 in 10.0 mi WNW 8.1 mph - N/A   Overcast
4:53 AM 61.0 °F - 52.0 °F 72% 30.02 in 10.0 mi West 11.5 mph 20.7 mph N/A   Overcast
5:53 AM 59.0 °F - 48.0 °F 67% 30.04 in 10.0 mi West 11.5 mph - N/A   Overcast
6:53 AM 57.9 °F - 48.0 °F 70% 30.04 in 10.0 mi West 8.1 mph - N/A   Overcast
7:53 AM 57.0 °F - 46.9 °F 69% 30.06 in 10.0 mi West 8.1 mph 16.1 mph N/A   Scattered Clouds
8:53 AM 55.9 °F - 46.9 °F 72% 30.06 in 10.0 mi WSW 10.4 mph - 0.00 in   Mostly Cloudy
9:40 AM 57.2 °F - 46.4 °F 67% 30.06 in 10.0 mi West 10.4 mph - N/A   Mostly Cloudy
9:53 AM 57.0 °F - 46.0 °F 67% 30.06 in 10.0 mi West 11.5 mph - N/A   Mostly Cloudy
10:53 AM 57.0 °F - 44.1 °F 62% 30.06 in 10.0 mi West 12.7 mph - N/A   Overcast
11:53 AM 57.9 °F - 45.0 °F 62% 30.04 in 10.0 mi WNW 10.4 mph - N/A   Mostly Cloudy
12:53 PM 57.2 °F - 44.6 °F 63% 30.04 in 10.0 mi West 9.2 mph - N/A   Clear
1:53 PM 57.9 °F - 43.0 °F 58% 30.03 in 10.0 mi West 12.7 mph - N/A   Overcast
2:53 PM 57.9 °F - 42.1 °F 56% 30.01 in 10.0 mi WSW 15.0 mph 19.6 mph N/A   Overcast
3:53 PM 57.0 °F - 42.1 °F 57% 29.99 in 10.0 mi WSW 11.5 mph - N/A   Overcast
4:53 PM 57.0 °F - 41.0 °F 55% 29.97 in 10.0 mi West 6.9 mph - N/A   Overcast
5:53 PM 55.0 °F - 39.9 °F 57% 29.98 in 10.0 mi West 8.1 mph - 0.00 in   Overcast
6:53 PM 51.1 °F - 42.1 °F 71% 30.00 in 10.0 mi West 9.2 mph 16.1 mph 0.01 in Rain Light Rain
7:53 PM 48.9 °F - 44.1 °F 83% 30.01 in 10.0 mi WSW 10.4 mph - 0.02 in   Overcast
8:53 PM 48.2 °F - 42.8 °F 82% 30.02 in 8.0 mi West 9.2 mph 17.3 mph N/A Rain Light Rain
9:53 PM 46.0 °F 41.9 °F 42.1 °F 86% 30.00 in 10.0 mi West 8.1 mph - 0.03 in Rain Light Rain
10:53 PM 46.0 °F 42.5 °F 42.1 °F 86% 29.99 in 10.0 mi WSW 6.9 mph - 0.02 in Rain Light Rain
11:53 PM 46.0 °F 43.1 °F 43.0 °F 89% 29.98 in 10.0 mi SW 5.8 mph - 0.01 in Rain Light Rain